Regional Weather Roundup
Issued by NWS

Home | Current Version | Previous Version | Graphics & Text | Print | Product List | Glossary On
Versions: 1 2 3 4 5 6 7 8 9 10 11 12 13 14 15 16 17 18 19 20 21 22 23 24 25 26 27 28
000
ASUS45 KSLC 250210
RWRUT

UTAH REGIONAL WEATHER ROUNDUP
NATIONAL WEATHER SERVICE SALT LAKE CITY UT
800 PM MDT SUN JUL 24 2016

UTZ001>011-023>025-250300-

NORTHERN UTAH

CITY           SKY/WX    TMP DP  RH WIND       PRES   REMARKS
BRIGHAM CITY     N/A     91  18   7 S5        30.03S
HILL AFB       CLEAR     87  29  12 NE3       30.07F
LOGAN          CLEAR     90  26  10 S3        30.04F
OGDEN          CLEAR     90  24   9 N6        30.03F
PROVO AIRPORT  PTCLDY    86  55  35 NW12      30.03R
SALT LAKE CITY PTCLDY    93  31  11 N8        30.01S
VERNAL         CLEAR     90  25   9 N9        30.06R
WENDOVER       CLEAR     90  28  11 SW5       30.02S
HEBER CITY     CLEAR     86  32  14 SW6       30.11R

$$

UTZ012>022-026-027-250300-

SOUTHERN/CENTRAL UTAH

CITY           SKY/WX    TMP DP  RH WIND       PRES   REMARKS
BLANDING       MOCLDY    89  34  14 NE3       30.20R
BRYCE CANYON   MOCLDY    76  39  26 VRB6G17   30.33R
CEDAR CITY     PTCLDY    86  46  24 SE13      30.11R
DELTA          CLEAR     93  23   8 CALM      30.02S
MILFORD        MOCLDY    89  37  16 SE14      30.04S
MOAB/CYNLANDS  CLEAR     99  27   8 W6        29.96R HX  92
PRICE          CLEAR     89  19   7 W9        30.12R
ST GEORGE      CLEAR    102  43  13 W9        29.88R HX  98
KANAB          MOCLDY    90  43  19 E12       30.12R

$$

REGIONAL REPORTS     COLORADO/ARIZONA

CITY           SKY/WX    TMP DP  RH WIND       PRES   REMARKS
CRAIG, CO      CLEAR     82  40  22 NE7       30.17R
GRAND JUNCTION CLEAR     94  33  11 S10       30.01R
RIFLE          CLEAR     89  40  17 SE9       30.09R
MONTROSE       CLEAR     87  43  21 S3        30.13S
CORTEZ         CLOUDY    85  43  22 E14       30.14R
PAGE, AZ       CLOUDY    90  44  20 W7        30.07R
GRAND CANYON   LGT RAIN  69  52  54 E15G21    30.31F
KINGMAN          N/A     95  53  24 SW17G23   29.98R HX  92
FLAGSTAFF      MOCLDY    77  52  41 SW6       30.28S

$$

REGIONAL REPORTS    NEVADA/IDAHO/WYOMING

CITY           SKY/WX    TMP DP  RH WIND       PRES   REMARKS
LAS VEGAS, NV  CLEAR    107  33   8 S13G20    29.75S HX 100
ELY            PTCLDY    89  21   8 SW10      30.12S
ELKO           SUNNY     93  12   5 NW8       30.04S
POCATELLO, ID  CLEAR     86  24  10 SW6       30.07F
BURLEY         CLEAR     78  50  37 SW3       30.03S
EVANSTON, WY   CLEAR     79  17  10 W10       30.27S
ROCK SPRINGS   CLEAR     83  15   8 NW12      30.22R
KEMMERER         N/A    N/A N/A N/A W9        30.28S

$$




USA.gov is the U.S. government's official web portal to all federal, state and local government web resources and services.